THY8UV LTBS-LUKK

Flight info

Callsign THY8UV
Flight time N/A
Altitude 38000
Route RIVBU UN136 CRD UW91 IST DCT IVGOT/K0843F380 DCT RUVER
Aircraft B739/M-SDE2E3FGHIRWXY/LB1

Departure

Time 2026-04-30 20:59
Airport Dalaman International Airport (LTBS)

Arrival

Time N/A
Airport Chişinău International Airport (LUKK)
Time Latitude Longitude Altitude Speed Heading
2026-04-30 20:30 36.72118 28.79019 29 ft 0 kts 285°
2026-04-30 20:45 36.72113 28.79045 29 ft 2 kts 285°
2026-04-30 20:45 36.72109 28.79063 29 ft 1 kts 285°
2026-04-30 20:45 36.72106 28.79075 29 ft 2 kts 269°
2026-04-30 20:46 36.72126 28.79100 29 ft 0 kts 195°
2026-04-30 20:48 36.72111 28.79095 29 ft 4 kts 197°
2026-04-30 20:48 36.72052 28.79074 28 ft 16 kts 195°
2026-04-30 20:49 36.71940 28.79036 27 ft 15 kts 195°
2026-04-30 20:49 36.71846 28.79003 26 ft 12 kts 195°
2026-04-30 20:49 36.71771 28.78978 25 ft 9 kts 195°
2026-04-30 20:50 36.71667 28.78942 23 ft 5 kts 195°
2026-04-30 20:50 36.71630 28.78929 23 ft 8 kts 194°
2026-04-30 20:50 36.71567 28.78908 22 ft 8 kts 196°
2026-04-30 20:50 36.71519 28.78891 22 ft 5 kts 195°
2026-04-30 20:51 36.71478 28.78877 22 ft 5 kts 195°
2026-04-30 20:51 36.71393 28.78848 21 ft 4 kts 190°
2026-04-30 20:51 36.71369 28.78854 21 ft 2 kts 148°
2026-04-30 20:52 36.71359 28.78871 21 ft 3 kts 119°
2026-04-30 20:52 36.71348 28.78912 21 ft 4 kts 105°
2026-04-30 20:52 36.71323 28.79011 20 ft 2 kts 130°
2026-04-30 20:53 36.71309 28.79022 20 ft 3 kts 159°
2026-04-30 20:53 36.71283 28.79024 20 ft 2 kts 189°
2026-04-30 20:53 36.71223 28.79003 19 ft 23 kts 195°
2026-04-30 20:54 36.70897 28.78892 17 ft 21 kts 195°
2026-04-30 20:54 36.70766 28.78848 16 ft 17 kts 195°
2026-04-30 20:54 36.70655 28.78810 15 ft 14 kts 195°
2026-04-30 20:55 36.70464 28.78745 16 ft 21 kts 195°
2026-04-30 20:55 36.70327 28.78699 17 ft 18 kts 195°
2026-04-30 20:55 36.70219 28.78662 18 ft 13 kts 195°
2026-04-30 20:56 36.70101 28.78633 18 ft 4 kts 166°
2026-04-30 20:56 36.70072 28.78649 18 ft 3 kts 141°
2026-04-30 20:56 36.70055 28.78694 18 ft 2 kts 101°
2026-04-30 20:57 36.70052 28.78724 19 ft 4 kts 91°
2026-04-30 20:57 36.70058 28.78767 19 ft 4 kts 71°
2026-04-30 20:57 36.70067 28.78794 19 ft 2 kts 65°
2026-04-30 20:58 36.70101 28.78833 19 ft 4 kts 25°
2026-04-30 20:58 36.70122 28.78842 19 ft 2 kts 15°
2026-04-30 20:58 36.70165 28.78858 18 ft 29 kts 17°
2026-04-30 20:58 36.70610 28.79009 14 ft 99 kts 15°
2026-04-30 20:59 36.72558 28.79695 363 ft 166 kts 18°
2026-04-30 20:59 36.73683 28.80170 896 ft 179 kts 22°
2026-04-30 21:00 36.75820 28.81821 2145 ft 193 kts 34°
2026-04-30 21:00 36.78249 28.83758 3324 ft 222 kts 31°
2026-04-30 21:01 36.81127 28.85861 4452 ft 257 kts 30°
2026-04-30 21:01 36.82706 28.87011 5167 ft 268 kts 30°
2026-04-30 21:01 36.86079 28.89146 6803 ft 278 kts 21°
2026-04-30 21:02 36.87893 28.89973 7581 ft 284 kts 19°
2026-04-30 21:02 36.89783 28.90792 8381 ft 289 kts 19°
2026-04-30 21:02 36.91677 28.91627 9171 ft 294 kts 20°
2026-04-30 21:02 36.93606 28.92499 9942 ft 298 kts 20°
2026-04-30 21:03 36.95568 28.93394 10582 ft 309 kts 20°
2026-04-30 21:03 36.97625 28.94334 10986 ft 327 kts 19°
2026-04-30 21:03 36.99886 28.95368 11036 ft 356 kts 20°
2026-04-30 21:03 37.02217 28.96670 11218 ft 376 kts 30°
2026-04-30 21:04 37.04379 28.98447 12081 ft 377 kts 37°
2026-04-30 21:04 37.06401 29.00525 12747 ft 383 kts 41°
2026-04-30 21:04 37.10318 29.05155 14154 ft 392 kts 43°
2026-04-30 21:05 37.12313 29.07556 14868 ft 396 kts 43°
2026-04-30 21:05 37.14307 29.09923 15515 ft 401 kts 42°
2026-04-30 21:05 37.16351 29.12317 16231 ft 403 kts 41°
2026-04-30 21:05 37.18425 29.14724 16882 ft 407 kts 41°
2026-04-30 21:06 37.20499 29.17117 17508 ft 410 kts 41°
2026-04-30 21:06 37.22592 29.19531 18105 ft 414 kts 41°
2026-04-30 21:06 37.24725 29.21989 18764 ft 417 kts 41°
2026-04-30 21:06 37.26877 29.24473 19346 ft 421 kts 40°
2026-04-30 21:07 37.29024 29.26950 19977 ft 423 kts 40°
2026-04-30 21:07 37.31194 29.29438 20540 ft 427 kts 40°
2026-04-30 21:07 37.33482 29.31846 21131 ft 428 kts 36°
2026-04-30 21:07 37.35869 29.34059 21671 ft 431 kts 33°
2026-04-30 21:08 37.38337 29.36189 22231 ft 433 kts 32°
2026-04-30 21:08 37.40853 29.38290 22769 ft 436 kts 31°
2026-04-30 21:08 37.43401 29.40397 23281 ft 439 kts 31°
2026-04-30 21:08 37.45946 29.42508 23786 ft 442 kts 31°
2026-04-30 21:09 37.48519 29.44652 24261 ft 446 kts 31°
2026-04-30 21:09 37.51124 29.46826 24740 ft 450 kts 31°
2026-04-30 21:09 37.53707 29.48986 25230 ft 452 kts 31°
2026-04-30 21:09 37.56346 29.51199 25675 ft 455 kts 31°
2026-04-30 21:10 37.58966 29.53401 26128 ft 458 kts 31°
2026-04-30 21:10 37.61632 29.55647 26550 ft 461 kts 31°
2026-04-30 21:10 37.64294 29.57895 26973 ft 464 kts 31°
2026-04-30 21:10 37.66989 29.60174 27427 ft 466 kts 31°
2026-04-30 21:11 37.69699 29.62468 27790 ft 470 kts 31°
2026-04-30 21:11 37.72429 29.64729 28188 ft 471 kts 29°
2026-04-30 21:11 37.75276 29.66755 28592 ft 471 kts 23°
2026-04-30 21:11 37.78339 29.68268 29028 ft 469 kts 14°
2026-04-30 21:12 37.81516 29.69117 29634 ft 462 kts
2026-04-30 21:12 37.84692 29.69307 30130 ft 458 kts 355°
2026-04-30 21:12 37.87859 29.68922 30645 ft 453 kts 348°
2026-04-30 21:12 37.90963 29.68155 31122 ft 451 kts 344°
2026-04-30 21:13 37.94015 29.67206 31613 ft 449 kts 343°
2026-04-30 21:13 37.97058 29.66203 32124 ft 447 kts 342°
2026-04-30 21:13 38.00031 29.65234 32628 ft 444 kts 343°
2026-04-30 21:13 38.03037 29.64293 33118 ft 443 kts 343°
2026-04-30 21:14 38.06012 29.63404 33573 ft 442 kts 344°
2026-04-30 21:14 38.09006 29.62546 34015 ft 441 kts 344°
2026-04-30 21:14 38.11984 29.61718 34428 ft 440 kts 345°
2026-04-30 21:14 38.14995 29.60897 34830 ft 438 kts 345°
2026-04-30 21:15 38.17922 29.60108 35140 ft 438 kts 345°
2026-04-30 21:15 38.20903 29.59307 35419 ft 438 kts 345°
2026-04-30 21:15 38.23900 29.58504 35735 ft 438 kts 344°
2026-04-30 21:15 38.26884 29.57705 36025 ft 438 kts 344°
2026-04-30 21:16 38.29846 29.56912 36302 ft 438 kts 344°
2026-04-30 21:16 38.32840 29.56110 36612 ft 438 kts 344°
2026-04-30 21:16 38.35778 29.55324 36996 ft 437 kts 344°
2026-04-30 21:16 38.38773 29.54521 37326 ft 437 kts 344°
2026-04-30 21:17 38.41718 29.53731 37699 ft 436 kts 344°
2026-04-30 21:17 38.44702 29.52930 37971 ft 436 kts 344°
2026-04-30 21:17 38.50672 29.51321 38050 ft 442 kts 344°
2026-04-30 21:18 38.56744 29.49680 38042 ft 450 kts 344°
2026-04-30 21:18 38.62873 29.48027 38046 ft 449 kts 344°
2026-04-30 21:19 38.68940 29.46392 38047 ft 449 kts 344°
2026-04-30 21:19 38.75057 29.44725 38049 ft 450 kts 344°
2026-04-30 21:20 38.81177 29.43050 38052 ft 449 kts 344°
2026-04-30 21:20 38.87288 29.41376 38049 ft 449 kts 344°
2026-04-30 21:21 38.93423 29.39689 38041 ft 448 kts 344°
2026-04-30 21:22 39.02546 29.37176 38042 ft 448 kts 344°
2026-04-30 21:23 39.14723 29.33814 38038 ft 449 kts 343°
2026-04-30 21:23 39.23750 29.31314 38036 ft 449 kts 343°
2026-04-30 21:24 39.29881 29.29613 38035 ft 449 kts 343°
2026-04-30 21:24 39.35970 29.27920 38035 ft 448 kts 343°
2026-04-30 21:25 39.45106 29.25341 38033 ft 448 kts 343°
2026-04-30 21:26 39.54253 29.22664 38033 ft 448 kts 342°
2026-04-30 21:27 39.63364 29.19990 38030 ft 447 kts 342°
2026-04-30 21:27 39.69453 29.18203 38031 ft 447 kts 342°
2026-04-30 21:28 39.78531 29.15537 38025 ft 447 kts 342°
2026-04-30 21:29 39.87646 29.12892 38027 ft 448 kts 343°
2026-04-30 21:30 40.02844 29.08514 38018 ft 447 kts 342°
2026-04-30 21:31 40.18020 29.04105 38044 ft 447 kts 342°
2026-04-30 21:32 40.27114 29.01454 38054 ft 446 kts 342°
2026-04-30 21:32 40.33166 28.99683 38058 ft 447 kts 342°
2026-04-30 21:33 40.42305 28.97007 38058 ft 447 kts 342°
2026-04-30 21:34 40.48371 28.95226 38053 ft 448 kts 342°
2026-04-30 21:34 40.57454 28.92557 38060 ft 447 kts 342°
2026-04-30 21:35 40.63495 28.90777 38057 ft 446 kts 341°
2026-04-30 21:35 40.69575 28.88974 38070 ft 449 kts 341°
2026-04-30 21:36 40.75665 28.87172 38065 ft 447 kts 341°
2026-04-30 21:37 40.87833 28.83558 38077 ft 449 kts 341°
2026-04-30 21:37 40.93941 28.81743 38077 ft 447 kts 341°
2026-04-30 21:38 41.00080 28.80374 38086 ft 453 kts 347°
2026-04-30 21:38 41.06369 28.79585 38089 ft 454 kts 349°
2026-04-30 21:39 41.12677 28.78895 38088 ft 456 kts 349°
2026-04-30 21:39 41.19014 28.78178 38099 ft 455 kts 349°
2026-04-30 21:40 41.25338 28.77424 38079 ft 456 kts 348°
2026-04-30 21:40 41.31688 28.76646 38109 ft 458 kts 348°
2026-04-30 21:41 41.37991 28.75870 38098 ft 455 kts 348°
2026-04-30 21:41 41.44280 28.75083 38129 ft 457 kts 348°
2026-04-30 21:42 41.50617 28.74284 38104 ft 456 kts 348°
2026-04-30 21:42 41.56950 28.73484 38109 ft 456 kts 348°
2026-04-30 21:43 41.62230 28.72816 38099 ft 457 kts 348°
2026-04-30 21:43 41.69678 28.71872 38105 ft 457 kts 348°
2026-04-30 21:44 41.76113 28.71054 38095 ft 459 kts 348°
2026-04-30 21:44 41.82475 28.70249 38124 ft 458 kts 348°
2026-04-30 21:45 41.88875 28.69433 38118 ft 459 kts 348°
2026-04-30 21:45 41.95253 28.68621 38137 ft 458 kts 348°
2026-04-30 21:46 42.01685 28.67798 38119 ft 460 kts 348°
2026-04-30 21:46 42.08126 28.66972 38141 ft 461 kts 348°
2026-04-30 21:47 42.14526 28.66152 38122 ft 459 kts 348°
2026-04-30 21:47 42.20916 28.65330 38158 ft 460 kts 349°
2026-04-30 21:48 42.27298 28.64512 38145 ft 460 kts 348°
2026-04-30 21:48 42.33715 28.63686 38152 ft 461 kts 349°
2026-04-30 21:49 42.40109 28.62864 38156 ft 459 kts 349°
2026-04-30 21:49 42.46460 28.62039 38170 ft 462 kts 349°
2026-04-30 21:50 42.52886 28.61202 38164 ft 462 kts 349°
2026-04-30 21:50 42.59302 28.60380 38161 ft 461 kts 349°
2026-04-30 21:51 42.65673 28.59555 38173 ft 461 kts 349°
2026-04-30 21:51 42.72116 28.58704 38163 ft 461 kts 349°
2026-04-30 21:52 42.78485 28.57866 38185 ft 462 kts 349°
2026-04-30 21:52 42.84913 28.57018 38175 ft 462 kts 349°
2026-04-30 21:53 42.91322 28.56173 38174 ft 463 kts 349°
2026-04-30 21:53 42.97745 28.55327 38195 ft 462 kts 349°
2026-04-30 21:54 43.04145 28.54486 38181 ft 462 kts 349°
2026-04-30 21:54 43.10593 28.53893 38203 ft 465 kts 355°
2026-04-30 21:55 43.17094 28.54410 38196 ft 469 kts
2026-04-30 21:55 43.23610 28.55434 38210 ft 471 kts
2026-04-30 21:56 43.30090 28.56520 38207 ft 470 kts
2026-04-30 21:56 43.36615 28.57576 38210 ft 471 kts
2026-04-30 21:57 43.43156 28.58614 38217 ft 471 kts
2026-04-30 21:57 43.49722 28.59642 38221 ft 471 kts
2026-04-30 21:58 43.56245 28.60666 38223 ft 470 kts
2026-04-30 21:58 43.62757 28.61680 38223 ft 469 kts
2026-04-30 21:59 43.69261 28.62688 38229 ft 470 kts
2026-04-30 22:00 43.79013 28.64205 38231 ft 469 kts
2026-04-30 22:00 43.88751 28.65721 38250 ft 468 kts
2026-04-30 22:01 43.95233 28.66736 38246 ft 468 kts
2026-04-30 22:01 44.01685 28.67750 38250 ft 467 kts
2026-04-30 22:02 44.08164 28.68764 38248 ft 468 kts
2026-04-30 22:02 44.14662 28.69798 38243 ft 469 kts
2026-04-30 22:03 44.21188 28.70833 38246 ft 468 kts
2026-04-30 22:03 44.27640 28.71856 38247 ft 467 kts
2026-04-30 22:04 44.34120 28.72884 38259 ft 468 kts
2026-04-30 22:05 44.43820 28.74425 38256 ft 466 kts
2026-04-30 22:05 44.50299 28.75458 38250 ft 467 kts
2026-04-30 22:06 44.56734 28.76489 38259 ft 468 kts
2026-04-30 22:06 44.66438 28.78050 38250 ft 467 kts
2026-04-30 22:07 44.72917 28.79089 38247 ft 468 kts
2026-04-30 22:07 44.79358 28.80129 38255 ft 466 kts
2026-04-30 22:08 44.85825 28.81177 38249 ft 468 kts
2026-04-30 22:08 44.92269 28.82223 38247 ft 466 kts
2026-04-30 22:09 44.98716 28.83269 38260 ft 465 kts
2026-04-30 22:09 45.05153 28.84318 38257 ft 465 kts
2026-04-30 22:10 45.11573 28.85362 38267 ft 465 kts
2026-04-30 22:10 45.17971 28.86410 38272 ft 465 kts
2026-04-30 22:11 45.27681 28.88007 38073 ft 461 kts
2026-04-30 22:11 45.30861 28.88531 37852 ft 453 kts
2026-04-30 22:12 45.33957 28.89041 37645 ft 448 kts
2026-04-30 22:12 45.37038 28.89548 37439 ft 449 kts
2026-04-30 22:12 45.40146 28.90056 37196 ft 452 kts
2026-04-30 22:12 45.43269 28.90567 36754 ft 451 kts
2026-04-30 22:13 45.46386 28.91080 36187 ft 452 kts
2026-04-30 22:13 45.49515 28.91595 35527 ft 455 kts
2026-04-30 22:13 45.52658 28.92112 34894 ft 456 kts
2026-04-30 22:13 45.55775 28.92628 34273 ft 457 kts
2026-04-30 22:14 45.58929 28.93151 33592 ft 460 kts
2026-04-30 22:14 45.62122 28.93679 32891 ft 464 kts
2026-04-30 22:14 45.65347 28.94215 32257 ft 466 kts
2026-04-30 22:14 45.68550 28.94749 31636 ft 466 kts
2026-04-30 22:15 45.71719 28.95279 30982 ft 465 kts
2026-04-30 22:15 45.74968 28.95824 30334 ft 464 kts
2026-04-30 22:15 45.78123 28.96357 29607 ft 458 kts
2026-04-30 22:15 45.81233 28.96885 28808 ft 451 kts
2026-04-30 22:16 45.84346 28.97413 27990 ft 444 kts
2026-04-30 22:16 45.87342 28.97894 27195 ft 436 kts 360°
2026-04-30 22:17 45.95892 28.95916 24751 ft 402 kts 335°
2026-04-30 22:17 45.98443 28.94491 24005 ft 393 kts 335°
2026-04-30 22:17 46.03402 28.91643 22584 ft 374 kts 335°
2026-04-30 22:18 46.05777 28.90275 21904 ft 365 kts 335°
2026-04-30 22:18 46.10372 28.87623 20582 ft 348 kts 335°
2026-04-30 22:19 46.14898 28.85417 19381 ft 338 kts 343°
2026-04-30 22:19 46.17173 28.84591 18837 ft 337 kts 344°
2026-04-30 22:19 46.21724 28.83001 17733 ft 331 kts 344°
2026-04-30 22:20 46.23949 28.82193 17195 ft 327 kts 344°
2026-04-30 22:20 46.28312 28.80546 16161 ft 321 kts 344°
2026-04-30 22:20 46.30455 28.79723 15665 ft 319 kts 344°
2026-04-30 22:21 46.32596 28.78899 15171 ft 316 kts 344°
2026-04-30 22:21 46.34692 28.78091 14684 ft 313 kts 344°
2026-04-30 22:21 46.36794 28.77281 14188 ft 311 kts 344°
2026-04-30 22:21 46.38887 28.76474 13708 ft 309 kts 345°
2026-04-30 22:22 46.40934 28.75685 13227 ft 305 kts 345°
2026-04-30 22:22 46.42980 28.74896 12741 ft 303 kts 345°
2026-04-30 22:22 46.45008 28.74113 12293 ft 300 kts 345°
2026-04-30 22:22 46.47024 28.73333 11855 ft 298 kts 345°
2026-04-30 22:23 46.49009 28.72566 11416 ft 296 kts 345°
2026-04-30 22:23 46.50963 28.71810 10974 ft 288 kts 345°
2026-04-30 22:23 46.52879 28.71068 10525 ft 280 kts 345°
2026-04-30 22:23 46.54723 28.70353 10111 ft 278 kts 346°
2026-04-30 22:24 46.56603 28.69624 9688 ft 274 kts 346°
2026-04-30 22:24 46.58393 28.68930 9270 ft 265 kts 346°
2026-04-30 22:24 46.60141 28.68251 8917 ft 255 kts 346°
2026-04-30 22:24 46.61825 28.67595 8581 ft 251 kts 346°
2026-04-30 22:25 46.63524 28.66935 8236 ft 250 kts 346°
2026-04-30 22:25 46.65200 28.66284 7894 ft 249 kts 346°
2026-04-30 22:25 46.66860 28.65638 7555 ft 248 kts 346°
2026-04-30 22:25 46.68514 28.64993 7220 ft 246 kts 346°
2026-04-30 22:26 46.71797 28.63714 6542 ft 243 kts 346°
2026-04-30 22:26 46.73405 28.63085 6197 ft 234 kts 346°
2026-04-30 22:26 46.74955 28.62478 5855 ft 227 kts 346°
2026-04-30 22:27 46.76461 28.61888 5517 ft 222 kts 346°
2026-04-30 22:27 46.77940 28.61311 5183 ft 220 kts 346°
2026-04-30 22:27 46.80827 28.60182 4568 ft 212 kts 347°
2026-04-30 22:28 46.83644 28.59078 3949 ft 203 kts 347°
2026-04-30 22:28 46.84975 28.58554 3689 ft 194 kts 347°
2026-04-30 22:29 46.88756 28.57936 3001 ft 174 kts
2026-04-30 22:29 46.89976 28.57975 2874 ft 175 kts
2026-04-30 22:30 46.92106 28.63269 2804 ft 181 kts 83°
2026-04-30 22:31 46.92250 28.68783 2762 ft 180 kts 84°
2026-04-30 22:32 46.92365 28.73874 2717 ft 166 kts 83°
2026-04-30 22:32 46.92435 28.77174 2319 ft 148 kts 83°
2026-04-30 22:33 46.92530 28.81346 1722 ft 135 kts 82°
2026-04-30 22:33 46.92591 28.84061 1363 ft 136 kts 83°
2026-04-30 22:34 46.92672 28.88162 747 ft 134 kts 85°
2026-04-30 22:35 46.92733 28.90921 398 ft 134 kts 82°